Home   Weather   Kriens   Past weeks

Flag for Switzerland Past Weather in Kriens, Lucerne, Switzerland — Yesterday and Last 2 Weeks

Now
43 °F

Quite cool.


Feels Like: 40 °F
Forecast: 39 / 53 °F
Wind: 5 mph from Northeast

Location: Giswil

Current Time: Feb 21, 2017 at 4:45:44 am

Latest Report: Feb 21, 2017 at 3:00 am


Visibility: N/A

Pressure: 30.23 "Hg

Humidity: 84%

Dew Point: 38 °F

Location of KriensLocation

Past Weather in Kriens — Graph

°F

Kriens Temperature Yesterday

Maximum temperature yesterday: 52 °F (at 3:00 pm)
Minimum temperature yesterday: 27 °F (at 7:00 am)
Average temperature yesterday: 39 °F

High & Low Weather Summary for the Past Weeks

 TemperatureHumidityPressure
High54 °F (Feb 16, 4:00 pm)100% (Feb 6, 6:00 am)30.68 "Hg (Feb 6, 6:00 am)
Low22 °F (Feb 19, 7:00 am)42% (Feb 20, 2:00 pm)29.83 "Hg (Feb 6, 3:00 am)
Average33 °F94%30.30 "Hg
* Reported Feb 6 3:00 am — Feb 21 3:00 am, Kriens, Weather by CustomWeather, © 2017

Note: Actual official high and low records may vary slightly from our data, if they occured in-between our weather recording intervals... More about our weather records

Advertising

Kriens Weather History for the Previous 24 Hours

Scroll right to see more
 ConditionsComfort  
Time TempWeatherWind HumidityBarometerVisibility
3:00 am
Tue, Feb 21
43 °FQuite cool.5 mph84%30.23 "HgN/A
2:00 am42 °FQuite cool.2 mph92%30.25 "HgN/A
1:00 am44 °FQuite cool.3 mph77%30.26 "HgN/A
12:00 am44 °FQuite cool.6 mph79%30.25 "HgN/A
11:00 pm
Mon, Feb 20
42 °FQuite cool.7 mph88%30.25 "HgN/A
10:00 pm42 °FQuite cool.2 mph88%30.27 "HgN/A
9:00 pm41 °FQuite cool.2 mph87%30.27 "HgN/A
8:00 pm38 °FChilly.1 mph90%30.28 "HgN/A
7:00 pm41 °FQuite cool.1 mph87%30.27 "HgN/A
6:00 pm47 °FCool.1 mph63%30.23 "HgN/A
5:00 pm49 °FCool.6 mph56%30.20 "HgN/A
4:00 pm50 °FCool.5 mph54%30.21 "HgN/A
3:00 pm52 °FCool.2 mph42%30.20 "HgN/A
2:00 pm51 °FCool.2 mph42%30.23 "HgN/A
1:00 pm49 °FCool.2 mph50%30.27 "HgN/A
12:00 pm46 °FCool.1 mph61%30.31 "HgN/A
11:00 am42 °FQuite cool.2 mph74%30.33 "HgN/A
10:00 am36 °FChilly.No wind97%30.35 "HgN/A
9:00 am28 °FChilly.1 mph100%30.40 "HgN/A
8:00 am29 °FChilly.2 mph99%30.38 "HgN/A
7:00 am27 °FChilly.1 mph99%30.36 "HgN/A
6:00 am30 °FChilly.1 mph99%30.34 "HgN/A
5:00 am31 °FChilly.1 mph99%30.34 "HgN/A
4:00 am30 °FChilly.1 mph99%30.36 "HgN/A
Weather by CustomWeather, © 2017

See weather overviewHow to use our weather pages